Theta_e
329 329 329 329 330 331 331 331 331 332 332 332 332 332 332 332 332 332 331 331 330 328 327 328 329 329 328 328 327 325 325 322 318 317 315 320 322 323 323 321 323 322 331 318 311 310 305 305 305 309 308 311 312 309 318 314 315 314 303 301 297 298 298 300 299 299 302 300 300 302 303 302 300 303 304 306 305 305 304 307 309 316 317 325 328 331 331 332
328 328 328 329 330 331 331 331 330 330 330 331 332 332 332 332 332 332 331 330 329 328 327 328 329 329 328 328 326 325 322 320 317 317 316 323 326 324 325 324 326 327 327 311 308 308 305 303 304 306 307 304 321 308 311 313 314 305 301 300 296 299 300 302 301 301 300 301 302 303 303 303 302 303 303 300 301 301 301 303 307 310 314 323 329 329 329 330
327 328 328 329 329 330 331 330 330 330 330 330 331 331 331 331 330 330 330 330 329 328 327 326 328 328 327 326 324 323 320 313 315 312 318 327 326 325 327 328 329 332 312 311 311 309 306 304 305 304 304 301 308 303 311 308 308 303 302 298 298 303 300 302 302 301 303 304 302 301 302 303 304 303 304 301 300 300 299 299 302 308 309 319 326 328 328 328
327 328 328 329 328 330 330 330 330 330 330 330 330 330 330 330 330 330 330 330 328 328 327 327 327 327 326 323 323 321 319 316 311 316 317 331 328 327 330 331 333 333 313 317 315 312 310 307 305 305 303 300 304 307 306 308 304 304 301 299 302 301 299 300 302 302 302 303 302 302 302 302 302 303 302 301 298 299 299 302 303 305 310 316 325 326 326 326
327 328 327 327 328 329 330 330 330 330 330 330 330 330 329 329 329 329 329 329 328 328 327 327 326 326 323 322 321 322 316 308 310 319 322 332 331 329 328 331 336 328 316 316 314 312 307 305 304 303 302 298 302 305 302 306 306 306 301 303 301 301 299 301 301 300 302 302 304 302 301 301 304 303 301 300 297 295 299 303 304 305 313 318 323 324 325 325
326 326 327 327 327 329 329 330 330 330 330 329 329 329 329 329 328 328 329 329 327 327 326 327 326 324 323 321 319 321 314 295 318 316 329 332 333 331 329 331 333 324 317 314 310 310 306 304 303 300 299 299 299 299 300 303 307 297 301 301 301 301 299 302 301 300 300 303 302 301 302 302 300 301 302 300 300 301 304 304 307 312 317 320 324 323 323 324
325 326 327 327 328 328 328 329 328 329 328 328 329 328 329 328 328 327 328 328 327 326 326 326 325 323 321 318 318 318 312 313 311 322 330 329 329 329 328 329 332 320 313 310 310 308 304 301 301 300 299 299 300 300 301 301 305 301 297 300 300 302 300 301 299 301 300 302 302 303 303 300 299 296 301 300 302 302 303 303 307 315 318 322 322 322 323 324
324 325 325 325 326 327 328 328 328 328 327 327 327 328 328 328 328 327 327 327 327 325 326 326 325 322 319 315 314 309 307 308 315 320 327 331 331 332 330 326 321 314 310 308 310 307 304 300 299 301 298 297 301 301 302 301 302 299 297 301 300 300 301 299 298 299 300 300 300 301 300 299 300 299 301 300 302 304 305 307 309 314 318 322 323 322 324 324
324 324 324 325 325 325 326 327 327 326 327 326 326 327 327 327 327 327 327 327 326 325 325 324 325 322 321 317 312 306 305 315 319 322 326 330 327 323 320 316 314 310 309 308 310 308 303 300 300 301 296 298 302 300 301 300 297 300 300 300 300 299 300 299 299 300 300 301 302 299 299 298 299 301 300 301 302 305 306 307 309 311 315 319 320 322 323 324
323 323 324 324 324 324 325 325 326 326 326 326 326 326 326 326 327 326 327 327 326 325 324 323 324 323 318 313 314 303 313 319 331 331 327 323 320 319 318 315 311 309 307 307 309 307 303 302 301 303 303 300 301 299 302 300 298 302 300 300 299 299 299 301 300 299 301 300 300 298 298 298 299 300 294 301 302 304 304 307 307 308 310 312 317 318 321 323
323 323 324 324 323 324 325 325 325 326 326 325 325 325 326 326 326 326 326 326 326 325 325 324 324 318 314 313 306 303 316 318 326 322 320 321 320 317 313 311 310 307 308 308 309 308 305 304 304 304 302 299 299 299 301 301 302 302 300 299 298 300 300 301 300 299 299 298 300 301 298 298 300 298 295 300 301 303 302 303 306 305 306 308 313 316 318 320
323 323 324 324 323 324 325 325 325 325 326 326 325 325 325 325 325 325 325 326 325 325 325 325 322 317 313 309 305 306 313 315 323 319 317 317 315 316 315 311 309 309 308 308 308 308 306 306 306 302 295 302 295 298 300 301 302 301 300 296 297 298 297 299 298 299 300 298 299 301 297 296 296 295 299 300 301 301 301 302 306 305 304 307 310 314 315 317
322 323 323 323 323 324 324 325 325 325 325 325 324 324 324 324 324 325 325 325 325 325 325 324 322 316 310 302 307 310 314 317 321 318 314 312 310 310 311 311 311 309 310 308 308 308 308 307 306 299 301 300 298 294 299 302 301 302 300 297 295 295 295 298 300 299 299 298 300 299 288 290 295 299 299 299 300 300 300 299 303 303 303 304 308 312 315 317
321 322 322 322 322 323 324 324 324 324 324 324 324 323 323 324 324 324 324 323 325 325 325 324 322 316 309 304 306 314 314 316 318 314 311 310 309 313 309 310 309 307 308 306 307 307 308 305 307 302 303 299 297 304 299 299 301 294 297 298 292 290 290 297 298 297 297 298 299 300 290 291 296 298 298 299 300 300 298 298 301 303 303 304 308 311 315 317
321 321 321 321 322 322 323 323 324 324 324 323 323 322 323 322 323 324 324 324 324 324 324 324 320 311 302 302 309 314 324 315 312 312 310 308 308 306 305 307 307 307 307 307 307 309 305 308 307 299 297 302 303 298 295 295 296 295 292 289 294 291 293 296 299 297 296 296 298 297 292 292 296 296 298 299 299 299 297 297 300 302 303 305 310 311 312 315
321 321 321 321 321 322 322 321 322 323 323 322 322 321 321 322 322 323 323 323 324 323 323 315 314 311 301 298 303 323 314 306 307 311 310 311 309 305 307 306 305 306 306 305 305 305 304 305 299 298 298 300 297 293 293 293 292 293 291 291 291 291 291 293 295 299 298 297 298 295 291 294 294 296 297 299 298 298 296 297 297 301 303 305 307 309 310 312
320 321 320 320 321 321 321 320 321 321 321 321 321 321 321 321 321 322 322 323 322 322 316 309 313 312 297 303 311 306 304 310 310 311 310 311 312 307 306 304 304 303 305 305 304 307 303 300 304 300 300 295 295 295 289 287 288 289 292 289 294 291 290 289 294 297 300 296 292 294 291 291 295 296 296 298 298 297 296 296 297 298 299 302 304 306 307 308
320 320 320 320 320 320 320 320 320 321 320 320 319 319 318 320 322 321 320 320 320 317 315 313 312 303 299 302 298 302 308 306 311 309 311 308 309 307 306 304 303 302 301 300 306 300 302 297 298 293 295 295 295 292 287 284 288 288 288 288 290 292 292 290 290 294 297 296 294 292 291 293 294 296 296 297 297 297 296 296 296 297 297 299 301 303 304 305
320 320 319 320 320 319 320 320 320 320 320 320 320 321 321 321 319 318 313 313 308 303 296 299 298 292 294 297 305 306 308 310 310 308 304 307 311 308 308 306 303 300 298 297 296 299 299 300 300 293 289 291 292 293 290 294 294 292 292 291 292 289 289 290 293 296 296 293 293 293 291 293 295 294 296 296 297 296 296 296 297 297 297 298 299 300 301 302
320 320 320 320 319 319 319 319 320 319 319 317 315 314 312 306 305 303 310 309 303 302 299 301 302 301 297 301 303 306 309 310 304 308 307 310 306 305 304 304 303 301 297 293 296 296 301 292 289 288 291 293 295 295 295 296 296 295 294 293 292 292 292 293 293 295 293 294 292 293 294 294 295 296 297 297 296 295 295 295 296 297 298 298 297 300 301 302
319 320 320 319 319 319 319 320 319 319 318 316 314 308 300 301 296 294 301 304 307 304 301 301 303 299 301 303 304 304 301 302 305 305 306 312 306 303 299 301 297 294 296 297 296 300 297 291 291 293 295 296 296 296 296 295 295 293 293 292 291 293 290 293 292 293 295 293 291 293 292 293 294 295 296 297 296 295 296 296 296 297 298 299 299 299 300 302
319 319 319 318 319 318 319 319 319 319 318 314 312 305 307 307 308 310 306 296 303 304 305 302 304 302 305 305 307 307 306 300 301 304 309 307 303 299 298 299 295 293 296 297 296 293 291 289 293 296 296 296 296 296 296 295 294 293 292 291 290 290 292 294 293 294 294 293 290 292 292 293 294 295 295 296 297 297 299 298 298 298 298 299 300 300 300 301
319 319 318 319 318 319 319 319 318 318 314 311 308 308 307 313 314 313 307 300 296 304 301 300 299 300 302 305 306 306 299 297 297 302 303 308 300 300 299 297 295 295 295 295 291 291 287 291 295 297 296 295 294 295 294 296 296 292 291 290 288 292 290 288 291 294 293 291 292 292 291 292 295 295 296 298 299 298 300 301 300 299 298 298 300 301 301 301
318 318 318 318 318 319 319 319 319 315 311 311 309 309 312 315 313 309 302 294 292 298 301 300 301 302 300 300 306 302 299 298 300 299 306 304 299 302 298 298 295 295 293 294 294 292 291 295 294 295 296 295 293 294 293 291 289 294 297 293 291 292 292 291 290 292 294 294 292 290 290 289 291 291 293 297 298 298 299 300 300 301 301 301 304 303 304 302
318 317 318 318 317 318 318 318 312 310 311 310 309 314 317 317 317 314 302 296 296 294 305 304 311 306 303 308 309 300 300 301 304 303 304 304 300 297 297 300 296 292 295 295 295 294 293 293 295 294 295 295 294 291 292 294 288 290 296 298 295 293 291 291 292 290 288 288 291 291 282 280 287 291 293 294 294 296 297 298 299 300 300 300 300 300 302 305
317 317 317 317 318 318 319 310 309 311 309 306 310 314 316 318 316 313 303 292 287 294 301 292 308 297 310 301 307 303 301 295 303 306 305 305 305 300 297 295 296 291 294 294 294 294 293 292 295 294 294 294 294 292 294 295 288 289 290 298 295 293 293 291 290 291 282 280 290 292 282 279 288 289 291 292 293 294 295 296 297 297 298 298 299 299 299 300
317 317 317 317 317 317 309 303 312 310 304 306 312 315 315 317 319 311 298 288 285 294 291 300 300 300 311 302 302 301 287 291 301 304 303 307 301 304 295 293 294 295 296 297 292 289 291 292 293 295 295 294 292 290 295 294 290 287 295 298 295 295 293 292 292 291 289 291 291 290 290 282 282 289 294 293 292 292 293 294 295 296 296 298 299 299 299 300
317 317 317 317 317 315 309 311 309 306 305 311 314 315 317 316 315 307 296 278 278 296 291 293 300 309 308 302 304 296 296 300 295 299 303 303 301 299 297 294 293 293 294 294 285 296 293 291 294 294 295 292 291 293 298 295 292 292 295 298 295 295 295 295 292 288 289 287 283 286 291 283 281 289 294 291 290 290 291 293 295 295 296 297 297 299 300 302
316 316 316 316 316 316 314 310 308 305 311 314 314 315 315 313 308 298 289 277 293 292 308 292 310 305 301 302 298 298 297 298 292 298 304 304 305 299 293 295 295 293 294 295 290 293 295 294 295 297 294 291 294 292 294 297 291 295 297 299 299 299 297 296 289 288 285 283 279 283 288 280 282 290 290 291 289 290 291 293 294 295 296 297 298 299 299 301
316 316 316 316 315 312 311 311 308 310 314 316 314 315 313 307 302 288 281 275 295 286 295 296 296 293 298 294 294 297 295 296 297 297 299 298 298 301 297 300 295 293 293 297 293 293 293 295 293 296 294 296 292 292 296 295 298 297 298 296 294 293 291 289 289 285 284 279 280 289 289 287 280 286 289 287 289 290 292 294 295 297 297 298 299 298 299 300
316 316 315 315 309 310 310 304 308 313 314 316 314 310 307 303 288 282 276 287 296 293 296 292 292 298 294 292 289 295 296 295 295 297 294 298 294 297 297 295 299 293 290 292 291 294 294 294 295 294 294 294 296 295 297 298 297 298 294 290 290 287 287 285 283 284 279 277 282 281 286 289 278 280 291 290 291 292 293 292 295 295 295 297 297 297 297 298
316 316 315 313 313 314 305 303 310 315 313 314 310 303 297 285 289 280 279 298 286 289 289 288 294 294 293 294 292 292 292 294 295 295 292 292 291 291 292 288 291 284 283 285 286 292 289 291 296 297 296 296 295 291 291 296 296 296 292 290 284 281 282 277 282 276 276 277 280 282 284 283 282 287 289 289 290 293 294 295 296 296 296 296 297 298 298 298
315 315 315 313 312 311 312 315 315 313 313 312 304 300 290 283 276 285 287 289 286 292 289 295 292 293 293 292 290 293 296 290 295 294 295 294 292 292 294 293 294 290 282 286 286 285 288 294 295 296 296 295 298 288 286 286 290 291 288 284 281 277 275 272 276 280 280 279 281 282 285 279 284 287 293 293 292 292 294 294 296 296 297 297 297 298 298 298
315 315 311 312 312 313 314 315 314 313 310 308 299 294 291 281 279 292 289 289 291 295 294 292 293 294 293 289 291 294 290 295 293 293 294 291 292 288 291 294 294 292 292 287 285 284 282 281 288 292 287 296 294 296 292 289 290 291 294 290 282 282 277 272 276 273 275 278 280 282 279 278 278 283 292 291 293 293 292 295 294 294 296 297 297 297 297 297
314 313 312 311 311 313 313 315 313 311 309 303 295 290 281 281 285 285 287 289 292 293 291 295 291 291 289 291 294 295 294 289 294 292 291 290 288 289 289 291 294 294 293 285 287 285 285 285 291 294 294 294 294 298 296 295 290 291 293 294 287 283 286 279 281 281 276 275 277 277 277 282 286 291 291 292 292 292 293 292 292 294 295 297 297 297 296 297
311 310 312 308 309 312 313 314 312 310 306 298 290 285 283 285 283 291 290 297 293 291 291 293 292 288 287 288 293 292 295 292 292 292 290 291 291 289 293 293 293 295 291 286 287 282 284 281 291 295 295 291 293 293 296 296 283 288 289 282 286 291 284 279 279 281 280 279 277 280 281 285 288 290 292 291 291 292 291 292 292 293 295 296 297 297 296 297
307 309 305 307 309 313 313 313 311 308 304 295 288 283 288 291 300 294 298 293 293 295 291 285 286 287 285 286 289 290 292 295 291 290 286 292 289 292 291 293 297 295 296 293 286 292 284 285 290 292 291 293 293 291 295 294 293 289 282 286 292 293 291 285 278 278 278 274 277 280 278 278 283 279 289 288 288 289 289 291 291 293 294 293 297 295 297 298
306 306 307 306 310 314 314 312 309 306 301 293 286 290 295 292 300 299 298 296 295 295 290 288 288 292 286 288 287 290 292 289 289 289 287 291 286 296 293 293 296 296 296 296 289 289 291 281 286 288 291 292 296 295 293 295 294 291 289 296 288 281 281 283 282 274 273 273 276 278 278 279 280 285 286 287 286 289 290 291 290 293 293 294 297 296 297 298
306 305 299 306 313 314 312 312 308 302 296 290 287 287 295 301 301 298 298 298 298 294 290 291 288 290 291 288 290 291 291 286 290 288 286 287 284 293 293 295 293 296 296 293 291 294 292 284 283 289 291 291 292 291 284 286 295 295 295 289 293 287 284 281 280 282 280 274 274 275 278 275 285 287 288 288 290 290 291 290 291 293 294 296 296 296 297 297
303 300 298 310 313 314 313 310 303 299 293 286 288 288 299 295 298 300 299 298 294 293 291 291 292 289 291 291 292 289 291 290 289 289 289 290 288 295 293 297 294 294 295 295 295 296 286 289 281 286 292 291 283 286 286 288 285 285 285 283 286 286 288 286 285 282 279 277 276 275 274 279 285 290 290 289 290 291 292 292 292 293 294 296 296 296 297 298
306 301 299 311 312 313 311 305 297 292 291 292 294 294 296 295 298 301 302 304 298 299 296 294 292 289 291 290 290 293 289 290 290 288 289 289 290 283 293 295 296 292 294 295 293 294 286 285 284 284 284 283 287 291 292 293 291 288 287 285 288 284 281 279 278 284 280 280 275 277 274 282 291 291 291 289 291 290 293 292 292 292 294 296 296 297 299 300
301 294 297 311 312 312 303 294 294 295 293 290 289 296 295 300 297 296 300 300 302 297 299 299 295 294 292 292 292 291 290 288 290 288 289 288 291 291 293 297 296 295 293 288 290 295 292 288 285 282 284 286 291 292 292 293 290 292 291 288 291 287 286 283 277 280 282 280 279 279 276 276 289 289 290 290 288 290 291 291 293 294 294 296 297 299 299 300
300 297 307 311 312 309 298 291 294 293 291 294 300 299 298 298 296 298 296 299 297 301 297 297 295 293 294 294 293 291 291 287 290 289 290 291 291 293 295 294 296 295 295 289 293 291 293 287 284 283 285 288 290 291 290 291 292 290 290 290 289 286 287 286 283 283 281 279 278 280 275 279 291 290 288 289 289 289 290 290 292 293 294 296 298 299 300 300
299 298 300 310 311 308 295 286 287 290 292 297 298 298 301 298 296 295 296 297 296 296 296 296 296 302 294 298 294 291 293 284 290 290 288 292 291 294 294 296 296 293 293 291 290 294 286 286 286 281 281 283 284 288 288 290 291 285 285 289 290 291 289 286 285 285 282 280 279 278 275 278 286 289 290 288 291 289 289 290 291 293 295 296 297 298 297 298
299 301 301 304 308 305 293 293 290 290 291 293 294 293 295 296 299 297 297 296 300 296 296 294 297 298 296 297 294 295 294 291 284 292 293 291 292 292 294 295 295 294 298 296 296 297 289 287 286 280 277 275 275 277 279 283 284 285 288 290 290 291 288 285 282 282 278 279 280 279 277 284 288 288 290 290 290 290 291 291 290 294 295 296 296 297 297 297
294 287 295 297 302 301 300 300 299 293 291 292 292 294 295 293 296 299 300 299 300 300 298 297 298 297 294 294 292 292 291 295 290 286 288 287 288 289 293 293 294 295 293 295 296 294 286 288 288 287 284 282 283 283 287 289 285 284 285 288 288 290 291 289 286 283 281 281 280 282 284 285 286 287 288 289 288 289 290 290 290 291 295 296 296 297 297 297
295 291 291 288 296 297 296 298 296 295 291 294 288 293 291 292 294 295 302 293 297 297 297 297 295 291 292 293 291 291 292 291 292 290 289 289 289 290 293 293 293 293 293 293 295 291 287 286 287 288 288 288 289 288 290 291 287 288 287 287 289 289 289 287 286 284 288 284 280 285 287 285 287 287 288 289 289 289 290 290 290 291 295 297 297 297 297 296
288 292 297 298 290 287 289 292 296 294 295 295 291 294 291 292 291 290 296 298 298 298 292 293 295 293 294 292 292 287 290 290 289 287 291 290 288 289 288 293 290 293 292 292 296 290 286 285 287 287 287 289 291 291 291 291 290 289 289 289 288 289 288 286 287 289 288 284 283 288 288 286 288 288 289 291 291 292 291 292 293 294 296 297 297 297 297 297
293 293 294 298 291 294 293 295 296 296 294 293 291 293 291 291 289 293 293 294 295 293 295 286 290 293 293 294 292 288 290 286 285 289 286 286 286 284 283 286 291 292 292 288 291 290 287 283 286 286 286 288 289 290 292 291 289 289 289 289 289 289 288 289 289 290 289 287 289 290 289 289 291 290 290 291 293 292 293 293 294 295 296 297 297 297 296 297
286 288 289 295 294 295 295 295 295 295 292 293 289 291 292 292 290 293 296 293 289 291 297 292 291 293 294 294 293 289 291 292 291 287 291 289 286 286 285 287 283 284 287 287 290 289 289 283 289 284 283 284 287 287 288 290 289 287 289 290 290 290 289 289 289 289 289 289 290 290 287 287 292 292 292 295 292 292 293 293 294 295 296 297 297 297 296 297
291 291 290 291 288 293 294 294 293 292 290 290 289 291 292 292 291 294 294 297 293 291 293 292 293 293 295 293 293 292 295 295 295 294 293 292 287 291 288 288 289 285 286 287 287 289 289 284 284 284 282 281 284 284 285 283 284 285 285 288 289 288 286 288 286 289 287 285 287 287 286 287 292 293 292 292 291 292 292 293 293 295 296 296 296 296 296 297
293 295 294 292 288 292 291 293 293 292 288 291 290 291 291 292 294 295 291 298 299 298 295 295 295 294 292 293 292 294 298 300 299 298 297 296 295 295 295 294 291 288 286 287 287 287 287 285 283 284 281 280 280 282 282 283 283 281 283 288 290 290 290 290 291 291 290 291 286 284 286 292 292 293 294 291 291 291 291 292 292 294 295 296 296 297 297 297
Wind_Speed
26 29 25 22 23 23 23 22 23 21 20 19 17 17 19 19 18 18 16 17 16 16 14 12 12 15 15 16 15 13 9 5 5 4 3 4 4 11 11 5 3 3 6 6 7 9 11 9 8 3 2 1 2 2 1 1 0 1 2 2 4 4 4 5 4 4 5 5 5 7 6 8 6 3 1 1 1 4 3 5 4 9 8 5 5 11 13 14
24 23 25 23 23 23 24 23 22 23 23 21 20 19 19 22 22 19 16 17 17 16 15 14 13 15 16 15 15 10 6 3 3 5 10 6 10 15 11 7 6 1 1 4 6 7 8 10 9 7 2 2 1 2 3 1 3 3 2 3 4 5 2 1 5 6 3 6 9 6 6 7 6 7 3 3 4 4 3 4 6 8 5 4 8 11 12 12
27 24 22 22 22 23 24 23 22 21 21 21 20 20 21 19 19 18 16 17 17 17 16 15 15 16 16 15 12 10 7 4 3 10 11 15 9 11 10 8 5 7 3 2 2 7 8 10 12 12 4 4 2 3 1 2 3 4 2 2 5 2 3 6 5 4 6 11 8 6 5 2 9 5 4 3 6 5 5 6 6 7 8 7 10 10 11 11
26 25 22 23 24 23 24 24 23 21 21 20 20 20 19 18 18 18 17 17 17 17 17 16 15 14 14 14 11 7 6 3 6 3 4 18 15 11 9 7 6 7 4 2 2 7 8 9 10 11 7 4 3 3 2 2 2 3 3 3 1 4 4 4 7 4 5 4 7 5 4 4 7 4 4 4 4 5 4 6 9 10 12 11 10 11 9 10
24 23 25 24 24 24 23 23 23 21 20 20 20 20 19 19 18 18 17 17 17 17 17 17 18 15 15 13 9 5 10 2 5 7 7 16 15 12 9 7 7 5 4 5 2 8 7 7 8 7 6 4 4 1 3 3 5 2 4 1 4 4 5 4 5 5 2 2 7 5 5 4 4 4 4 5 4 3 2 1 6 8 15 14 12 10 9 11
25 25 23 22 23 23 24 22 22 21 22 22 20 19 19 19 18 18 18 19 19 19 18 18 18 16 14 10 5 3 10 7 2 2 7 14 13 13 11 8 7 5 4 6 1 5 6 5 5 5 3 4 4 5 2 5 3 3 1 1 4 4 4 2 2 2 2 3 6 6 4 6 4 2 4 4 2 2 2 2 5 8 15 15 12 11 9 11
27 27 26 24 24 22 23 24 25 22 22 23 21 20 20 19 19 18 18 19 17 19 18 19 19 16 15 10 3 4 7 4 0 2 7 9 13 12 9 7 7 7 6 6 2 2 4 6 5 7 6 6 7 6 6 3 1 2 1 2 3 4 4 4 3 1 3 4 5 3 7 4 4 4 4 4 5 5 4 4 5 10 12 13 12 11 13 12
26 26 25 24 23 23 22 22 22 22 23 21 22 22 21 19 19 18 18 18 18 20 19 18 18 18 18 9 9 3 3 8 3 4 11 11 11 13 9 6 9 6 6 6 4 3 6 7 6 5 8 7 2 8 6 7 3 4 3 1 2 4 2 3 3 3 2 4 3 6 5 3 3 0 3 4 6 6 5 6 5 7 12 11 11 11 10 11
24 25 25 24 23 22 22 22 23 23 22 22 20 21 22 20 18 18 18 18 18 19 21 18 18 18 8 5 7 9 9 4 5 13 13 12 12 12 12 7 8 8 3 5 4 5 5 4 6 6 5 5 6 7 4 6 5 5 2 3 2 3 3 2 4 3 3 2 1 4 3 4 3 1 1 5 5 6 6 5 5 5 8 10 10 11 10 10
26 25 24 24 23 22 22 22 22 21 22 22 21 21 22 22 19 19 18 18 19 19 21 19 18 16 6 8 3 7 1 5 7 11 14 13 13 14 7 9 7 6 6 3 4 6 8 5 6 4 5 9 10 6 4 5 3 4 6 3 3 3 3 3 4 3 1 3 2 3 4 2 2 2 3 4 8 8 6 7 5 6 5 6 7 8 9 10
26 24 25 24 23 22 22 22 22 23 23 23 21 22 21 20 22 18 17 18 18 18 20 20 19 14 5 4 10 8 1 1 3 8 13 13 14 10 9 10 8 6 7 6 5 8 9 8 5 5 4 4 10 3 1 0 0 4 8 6 3 2 2 0 4 4 3 2 1 2 3 4 1 2 2 5 4 8 8 7 7 5 6 6 7 8 7 8
27 25 24 23 23 22 22 22 22 22 22 21 20 21 21 20 19 18 17 18 18 19 20 18 21 6 4 1 6 4 3 3 6 7 11 9 7 7 10 9 8 4 5 4 5 6 6 5 4 3 4 5 3 2 3 2 2 5 7 3 3 3 2 2 3 4 1 1 3 1 4 1 3 4 4 5 4 4 5 7 6 6 5 7 6 7 6 7
26 25 24 23 22 22 22 22 22 21 22 22 20 20 19 21 20 17 17 16 17 19 18 17 13 5 6 6 3 1 2 7 6 8 8 6 5 6 3 4 5 6 7 6 5 3 5 5 2 7 6 6 5 4 3 4 2 3 4 3 3 3 2 3 3 3 1 1 1 1 1 5 9 13 6 6 7 4 4 5 6 5 5 5 6 7 6 6
26 24 24 23 22 22 22 22 22 23 23 22 21 21 20 20 20 18 16 15 17 19 17 17 6 4 5 4 2 1 3 5 7 7 8 7 9 2 3 4 3 5 6 3 2 4 5 3 3 4 5 6 3 1 2 2 0 3 3 3 3 4 3 5 3 3 1 2 1 0 1 4 7 6 5 5 6 7 6 5 5 5 5 5 6 6 7 7
25 24 24 23 22 22 22 22 24 23 22 23 21 22 19 21 20 18 15 16 16 17 16 12 4 3 3 3 4 1 3 8 6 5 8 10 9 5 4 4 4 4 5 2 1 2 3 3 1 4 6 1 2 4 1 2 1 2 4 5 3 6 1 3 1 6 3 1 4 1 2 6 3 5 4 3 3 4 5 5 6 6 6 5 5 6 6 7
25 24 23 23 22 22 22 23 23 23 22 24 23 21 19 18 18 18 17 14 16 18 10 9 7 3 3 6 2 2 1 6 8 8 4 6 9 5 7 7 5 7 5 1 1 2 3 3 5 3 5 0 4 4 4 2 3 4 5 2 4 4 3 1 3 2 5 4 1 4 3 2 1 2 3 1 3 4 4 5 5 8 8 7 5 6 5 5
25 24 24 23 23 23 23 23 25 24 24 23 24 22 20 19 19 19 17 18 11 7 7 5 6 3 4 1 4 5 5 2 4 4 3 1 2 13 11 7 4 7 3 1 2 2 3 5 1 1 3 5 3 4 4 5 3 5 4 3 3 6 5 2 1 2 1 3 3 4 2 3 3 5 4 4 4 4 4 5 4 5 6 7 6 6 6 6
26 25 25 24 25 25 25 26 27 26 25 25 24 23 21 21 22 19 14 10 7 7 6 4 4 2 5 5 8 8 5 5 3 7 4 1 4 11 10 4 5 9 6 2 2 5 3 4 4 4 3 6 6 7 7 7 6 4 4 4 3 2 7 4 6 5 4 4 4 5 4 9 3 5 5 6 5 5 5 5 5 5 5 6 7 7 7 7
27 26 25 26 26 26 25 26 27 27 28 27 28 26 26 21 10 5 12 11 12 6 6 10 11 11 5 14 3 9 6 8 8 8 5 4 1 2 3 5 10 10 5 5 2 6 3 1 3 4 7 8 10 10 7 2 6 5 6 6 3 4 4 4 2 1 8 5 3 8 8 10 9 4 5 4 5 6 5 5 5 5 5 6 6 6 6 6
27 27 27 27 27 27 27 29 28 30 32 24 18 16 11 13 8 8 11 12 11 12 6 13 7 2 5 13 7 3 7 10 7 2 7 3 7 4 5 6 5 7 8 6 4 8 4 6 6 9 8 8 9 9 8 10 2 6 7 8 5 7 3 3 2 0 1 2 6 6 6 6 6 7 7 8 6 5 5 6 5 5 4 5 5 6 7 7
28 28 27 28 27 28 29 28 29 29 26 17 15 17 14 21 19 16 21 14 7 8 1 21 16 2 5 6 7 17 11 4 1 4 5 2 4 10 6 6 7 7 6 7 6 2 6 7 8 8 8 8 10 10 9 3 5 4 8 7 7 5 3 1 3 2 2 2 5 6 5 7 7 5 4 6 7 8 8 7 7 6 6 6 6 6 7 6
27 28 28 28 29 30 30 26 28 27 21 16 13 11 7 14 6 5 18 10 11 7 1 18 12 7 2 7 4 2 5 6 6 5 0 3 8 7 6 7 9 8 7 5 6 4 8 11 8 8 9 4 6 9 8 4 3 5 2 8 5 4 4 3 4 2 3 2 4 5 9 9 8 5 5 5 9 7 10 10 9 8 8 7 8 8 7 5
28 28 28 29 29 30 27 30 27 23 14 12 12 11 13 6 10 19 6 11 7 3 7 17 12 8 5 4 1 1 6 9 8 7 7 3 9 3 9 7 10 8 10 10 8 5 6 6 9 6 8 5 2 6 3 2 2 3 2 2 5 4 6 1 1 3 2 1 0 3 2 6 4 5 8 11 11 7 10 12 9 9 10 9 9 10 9 8
28 30 29 29 29 28 27 27 26 16 13 15 14 9 3 2 17 17 12 6 10 4 6 14 8 5 7 9 3 2 6 4 8 9 5 6 11 4 7 10 11 9 11 14 9 7 5 1 1 2 6 9 4 1 4 3 4 4 3 1 2 4 2 3 4 3 0 0 1 3 3 6 5 6 7 9 9 8 8 8 8 7 7 5 2 1 5 10
29 28 28 29 28 30 28 27 15 10 15 15 13 8 1 2 4 1 11 10 4 2 5 4 2 3 3 2 1 2 2 3 1 7 6 9 9 3 7 4 7 9 9 12 8 7 8 4 2 3 4 9 5 3 4 4 4 3 4 1 3 5 6 6 7 5 1 2 3 2 1 5 5 11 14 9 6 9 6 8 8 8 6 4 5 5 2 1
27 30 29 29 29 29 29 15 11 12 17 15 10 12 4 0 3 3 2 5 8 4 2 8 3 5 4 3 3 2 6 5 0 1 10 2 2 4 3 5 2 11 11 11 10 2 3 1 1 4 7 6 6 5 4 4 4 2 3 3 2 5 8 8 8 4 2 2 2 1 8 5 2 4 8 5 7 10 4 7 8 6 6 6 8 7 6 6
28 28 29 29 30 32 19 8 13 15 14 12 12 5 5 3 1 4 4 4 5 5 10 2 5 2 0 7 5 7 10 7 1 2 6 1 5 1 8 5 2 2 1 3 1 6 3 2 1 1 4 5 4 6 4 8 4 3 1 2 5 9 7 6 7 4 1 1 1 1 1 2 5 7 1 8 6 5 5 6 7 7 7 8 8 7 6 7
31 30 29 31 31 26 3 11 17 15 12 6 7 6 2 2 1 2 0 7 4 10 8 3 2 0 1 7 7 6 2 13 5 5 2 3 2 1 2 9 11 5 0 5 10 2 2 3 2 3 2 3 6 3 2 7 4 2 1 4 1 5 5 5 4 3 0 2 2 2 3 1 4 5 0 4 3 3 7 9 9 9 7 7 6 6 5 4
29 29 29 30 29 18 4 11 14 14 9 2 10 5 3 3 1 1 1 3 3 4 4 10 2 3 6 9 8 3 2 3 4 4 2 3 1 1 5 6 6 8 4 2 6 1 3 2 3 2 4 6 2 0 3 4 7 2 2 0 2 3 2 4 3 3 0 1 5 5 4 3 6 3 4 1 2 6 7 10 9 9 7 6 5 5 5 3
30 30 30 31 23 9 1 11 10 12 3 2 9 6 5 3 1 2 4 5 6 5 7 4 6 11 10 13 9 4 8 1 3 3 5 5 5 1 1 2 5 6 3 6 7 0 1 2 4 2 3 1 2 2 1 2 1 5 3 5 3 3 2 1 0 2 1 2 5 3 7 1 3 4 7 6 6 6 6 1 3 5 5 5 4 5 5 4
30 29 29 29 13 8 7 12 14 7 5 2 10 10 6 1 4 4 6 2 5 4 5 7 9 13 14 16 11 6 4 3 3 12 8 4 2 1 3 4 3 5 3 3 4 2 1 2 0 1 0 2 1 2 3 1 4 6 2 3 5 3 2 1 1 1 2 3 0 4 1 0 6 4 2 2 0 1 1 7 6 6 5 5 4 4 4 4
29 29 29 18 9 6 9 13 13 7 6 4 10 10 8 8 2 5 4 6 7 7 9 11 14 14 15 12 7 11 7 5 5 11 14 9 8 8 8 6 5 5 5 6 3 2 3 1 1 2 3 0 3 4 4 2 1 1 4 6 7 2 2 1 1 4 4 4 1 1 2 1 7 7 3 1 3 1 1 2 7 6 5 5 4 4 4 4
29 26 27 13 11 6 3 2 9 8 7 7 9 6 8 7 11 10 5 10 2 15 7 12 15 16 14 12 8 9 5 7 8 9 11 8 9 6 6 6 7 6 6 3 4 3 0 1 2 1 1 3 2 6 3 1 3 3 7 7 6 3 3 4 2 2 0 1 3 1 2 1 3 5 12 14 5 6 5 5 6 7 6 6 5 3 4 3
28 27 16 10 8 3 3 3 8 10 10 9 10 6 3 8 9 10 7 7 4 6 15 11 15 15 16 11 9 9 7 3 10 7 11 9 10 10 9 7 12 7 4 7 7 7 3 2 5 6 1 5 3 1 4 3 7 7 3 7 5 4 3 3 4 5 4 2 0 3 2 6 5 5 0 1 2 3 5 6 5 5 5 5 3 3 4 5
29 21 13 8 3 5 4 3 10 12 9 11 10 9 11 12 6 14 9 8 5 10 14 15 17 16 13 7 8 12 3 4 7 9 8 10 11 9 13 11 10 8 4 9 3 4 10 3 1 3 2 2 7 0 2 2 2 3 1 2 1 5 1 5 1 2 4 2 1 1 5 2 4 1 1 2 2 4 3 4 5 4 4 3 2 4 4 4
21 12 11 7 8 6 4 3 10 11 11 12 11 9 13 11 7 8 5 5 7 8 16 16 12 14 12 7 8 11 6 3 11 7 7 11 8 9 7 5 10 13 8 9 4 3 3 5 2 3 1 2 1 2 0 1 6 4 3 4 2 1 8 4 1 0 0 2 4 3 3 6 4 5 5 4 3 2 2 2 4 5 4 3 4 5 4 5
13 14 10 9 8 8 6 5 8 9 9 11 13 13 11 3 1 7 4 11 10 16 16 17 11 13 14 11 10 14 5 5 7 6 7 6 6 10 11 8 10 13 9 8 2 3 9 2 1 0 1 0 0 0 1 1 0 4 1 5 1 1 2 3 3 0 0 3 3 6 7 3 2 5 1 3 5 4 5 5 5 5 5 5 4 5 5 5
14 11 8 11 8 9 7 7 9 6 7 10 13 12 2 5 2 3 6 13 14 14 12 11 6 10 12 9 9 13 7 10 9 5 4 11 2 9 8 7 11 12 10 1 5 3 7 3 0 1 1 3 1 0 0 1 0 1 4 1 4 1 2 1 1 1 0 2 2 2 5 3 7 4 2 4 6 6 6 6 5 5 5 5 5 5 5 5
11 10 8 10 10 9 8 8 7 8 10 11 12 9 3 1 1 3 10 11 9 13 13 7 10 9 12 12 12 10 14 10 10 6 7 6 5 8 13 8 7 11 8 5 4 3 4 5 1 1 0 1 1 1 7 4 1 1 0 1 1 1 1 3 4 2 5 3 2 3 2 3 5 4 5 6 8 8 7 7 8 7 7 6 6 6 6 5
13 7 5 10 11 10 10 8 7 5 8 17 14 5 4 2 1 2 2 15 7 10 6 11 10 12 11 9 15 12 12 12 14 9 6 4 5 2 10 9 6 11 11 3 2 4 3 2 4 1 2 1 1 2 7 9 7 3 1 0 0 0 1 1 2 4 2 2 2 2 2 5 5 3 5 5 7 8 10 10 8 7 7 6 7 8 6 6
6 4 7 12 12 10 10 8 9 13 14 7 4 3 6 4 3 1 4 6 3 5 3 7 9 11 12 12 12 10 7 9 10 9 7 6 12 3 6 8 8 7 4 4 3 2 2 2 7 3 3 3 2 1 0 1 4 5 7 6 9 7 4 4 6 1 1 2 3 2 6 2 2 2 2 5 3 4 3 6 6 6 6 7 7 6 7 6
8 9 9 14 14 14 14 13 8 8 4 9 9 5 3 7 5 3 2 1 4 2 3 3 7 5 7 7 11 12 8 9 8 7 6 8 10 3 4 9 12 12 11 8 9 1 3 3 8 3 3 3 1 1 1 0 1 1 1 4 4 2 2 0 3 4 0 2 3 2 1 6 3 2 3 3 4 3 1 3 5 4 6 6 5 6 5 6
2 6 10 15 14 13 13 10 8 8 6 5 5 5 5 2 5 1 4 1 4 1 1 1 6 8 6 6 8 8 13 6 13 13 9 8 5 4 5 7 11 13 9 2 5 3 6 4 5 2 3 1 1 1 1 0 0 0 3 1 2 7 8 8 4 3 5 1 1 0 2 4 1 0 1 1 1 1 1 1 3 4 4 4 6 5 7 7
4 12 10 6 12 7 12 15 15 15 10 5 4 3 2 3 6 5 4 5 4 3 3 3 3 0 5 4 6 11 13 3 5 6 4 4 4 3 5 4 16 8 11 8 10 6 3 2 8 5 3 1 2 1 1 1 1 3 4 7 5 1 4 2 2 0 0 5 6 6 8 4 4 1 1 0 1 1 1 1 1 4 4 4 4 4 4 6
4 4 5 10 8 5 11 10 14 13 12 9 9 9 5 3 2 7 6 5 2 3 4 0 1 4 3 2 4 5 10 8 3 5 3 5 1 1 6 1 10 10 1 3 4 9 5 4 7 5 8 9 8 10 10 9 9 3 2 1 4 3 5 5 5 2 4 3 6 3 4 6 1 1 1 2 3 1 2 3 2 2 5 5 5 5 5 6
3 8 5 9 7 6 5 4 2 12 14 12 10 7 8 6 1 4 6 2 2 3 3 4 1 5 4 6 4 6 8 4 3 5 6 3 1 1 3 4 4 1 2 1 8 9 2 3 8 10 11 11 9 5 2 6 4 4 6 9 8 8 8 7 4 4 8 3 7 7 7 6 3 2 1 4 4 6 4 4 5 4 4 5 6 5 6 6
3 5 13 13 6 9 6 6 3 9 14 14 11 10 13 11 5 2 2 3 3 3 2 1 4 7 4 10 7 7 9 5 3 6 8 7 1 1 4 4 4 5 3 2 7 5 2 5 6 10 12 12 10 8 9 14 12 14 15 14 14 13 11 10 11 11 11 6 8 6 8 8 10 3 5 5 5 4 4 5 5 5 5 7 7 5 6 5
1 3 2 3 8 19 16 14 12 13 11 15 8 8 12 13 10 9 2 1 5 2 5 2 2 7 12 13 8 6 7 5 5 5 5 3 5 1 3 3 2 3 4 1 2 4 5 7 6 6 8 8 4 5 8 9 11 11 15 16 16 13 9 10 11 14 7 8 13 13 9 9 9 5 8 8 7 8 9 8 7 7 5 5 6 7 7 6
1 3 1 2 2 5 8 3 13 6 13 16 6 11 13 14 16 11 6 4 4 3 4 6 9 9 11 9 10 5 11 7 6 5 5 6 6 4 3 2 1 3 2 0 3 0 2 4 5 7 9 8 4 4 5 12 8 8 9 11 11 12 13 15 16 16 14 9 11 14 6 12 7 5 7 7 7 6 3 3 5 7 7 7 7 7 8 8
1 1 2 3 5 5 11 11 11 8 10 15 10 12 11 14 16 9 5 7 7 8 3 4 9 8 8 9 9 9 11 12 10 8 1 9 3 2 6 4 4 2 1 0 1 2 4 2 4 3 4 5 2 1 1 2 6 9 8 9 10 12 13 15 15 16 13 12 13 10 6 9 4 6 5 0 4 5 5 6 7 6 6 7 8 8 8 9
1 1 4 4 3 2 10 10 11 12 8 11 13 10 10 13 15 13 6 5 14 10 9 14 10 9 6 9 8 9 7 8 8 14 13 14 11 7 7 2 7 8 3 2 0 0 4 2 2 3 4 3 0 1 1 2 2 1 3 5 8 12 12 12 12 12 9 10 11 9 10 13 10 5 3 4 5 7 8 7 5 5 7 8 8 8 9 9
2 2 1 3 4 1 10 10 10 10 12 12 13 14 11 18 13 13 5 2 2 6 11 9 9 10 5 8 12 8 3 4 5 10 13 7 3 7 4 7 15 13 8 8 3 6 5 4 2 1 5 4 1 1 3 2 1 4 8 11 15 14 14 13 13 12 12 14 13 11 16 16 7 7 9 5 6 7 6 6 5 5 8 10 11 10 11 9
Wind_Direction
175 169 170 169 167 166 167 169 169 164 164 163 160 160 160 158 155 154 157 144 146 148 137 140 139 128 121 120 120 123 134 98 126 150 178 239 107 143 178 165 180 291 348 342 351 336 330 328 318 277 263 293 223 260 168 201 151 202 209 207 238 250 190 170 199 133 134 124 153 159 169 130 134 161 98 170 96 101 135 109 101 70 64 82 100 111 119 124
173 172 166 170 169 169 168 168 168 168 169 167 166 162 161 161 159 157 153 144 138 139 137 132 132 128 124 128 124 132 110 86 193 230 221 152 156 155 179 194 187 175 9 14 1 319 314 321 315 312 226 263 218 252 125 225 144 178 245 207 234 223 303 0 69 93 162 147 159 162 184 147 153 152 170 152 166 147 155 135 137 100 89 96 105 117 123 133
171 169 170 168 171 172 169 167 165 166 167 168 167 166 164 160 156 157 150 147 141 139 136 138 136 137 135 125 131 134 97 57 323 247 236 148 171 186 182 202 169 147 131 122 323 304 312 312 311 307 253 253 189 228 161 222 173 232 235 245 255 59 60 45 77 76 59 132 145 153 185 198 143 149 146 197 165 175 182 159 155 141 147 144 136 137 141 146
173 166 166 173 174 171 169 165 163 164 165 167 167 166 163 158 154 155 149 148 142 140 140 141 142 139 130 129 135 167 103 64 240 214 191 160 174 190 193 194 168 159 132 107 253 278 294 300 294 296 288 227 237 255 207 207 152 197 194 218 238 167 100 38 68 59 51 117 132 150 146 101 150 115 155 210 158 185 212 179 173 169 158 153 156 148 156 157
171 165 170 174 172 169 164 160 161 161 164 164 163 162 160 155 152 149 148 147 144 143 143 145 147 138 133 136 163 159 89 207 242 196 154 162 166 186 188 190 149 153 161 119 314 264 263 287 301 299 288 251 229 216 251 197 217 7 223 26 339 360 82 84 65 20 62 22 123 119 147 147 94 118 192 189 194 176 200 192 153 167 150 149 159 158 160 165
170 166 171 173 172 168 166 160 158 162 164 163 160 158 158 155 150 149 147 148 148 147 146 149 147 136 135 131 145 139 139 205 151 149 160 151 162 170 191 197 163 148 182 129 207 308 310 279 275 272 264 254 217 205 223 246 153 246 233 60 22 2 113 109 83 1 337 112 123 138 166 100 129 164 211 193 213 139 78 64 80 103 147 155 150 149 169 169
168 169 172 171 170 167 163 163 162 162 166 163 159 159 156 153 150 149 147 150 146 146 148 146 145 134 126 106 1 73 180 278 27 248 124 146 138 146 181 206 151 166 184 115 175 38 261 258 256 264 259 254 263 208 217 207 173 256 292 99 42 34 85 71 91 63 32 97 126 158 112 121 163 176 188 215 100 123 85 88 80 108 124 134 145 166 172 178
169 169 168 170 166 165 165 163 160 162 166 166 163 159 156 153 149 148 147 148 148 148 147 148 145 140 138 134 117 135 166 244 113 194 143 138 145 142 152 135 153 169 173 130 128 216 259 264 250 253 262 252 190 204 189 213 190 229 265 92 107 83 89 90 119 89 77 54 33 86 133 150 171 123 113 224 138 134 109 86 89 115 132 140 149 168 176 177
171 167 167 168 164 163 163 162 161 163 166 169 165 163 157 151 147 146 148 147 146 148 148 147 152 150 156 115 136 133 223 197 136 158 151 146 129 121 123 127 186 163 139 118 176 236 266 250 262 256 269 245 289 233 161 183 223 229 215 104 142 95 106 125 115 129 112 91 104 101 140 68 92 153 250 223 164 135 128 99 109 118 144 151 161 171 173 177
167 166 168 166 163 162 161 161 160 159 164 169 162 162 156 152 146 146 146 147 148 148 150 153 154 157 152 113 110 193 257 120 130 144 148 139 131 136 147 150 174 135 118 149 211 227 238 252 256 293 314 289 266 284 141 199 318 176 110 99 98 119 111 183 137 135 135 110 173 161 136 88 35 94 258 188 131 139 132 136 147 144 165 165 160 172 177 178
167 166 165 162 160 161 160 159 159 158 161 163 159 160 154 148 149 144 144 146 146 148 151 152 154 151 152 178 159 196 348 120 152 132 140 148 140 143 148 158 167 155 124 132 198 227 246 261 279 311 278 280 334 298 199 318 319 90 114 91 85 120 89 151 116 135 133 80 207 288 98 93 74 91 255 130 162 145 151 159 163 173 169 177 169 171 176 181
162 164 164 158 158 161 158 157 155 155 153 153 156 153 148 144 142 143 143 144 146 148 153 149 160 160 102 224 208 174 267 144 155 149 135 146 140 157 170 164 171 141 129 136 241 238 260 282 345 291 260 7 265 357 256 155 297 137 138 117 147 145 115 196 149 171 239 110 205 289 91 187 167 219 200 146 137 165 159 162 169 186 188 172 176 169 174 182
159 160 159 156 158 159 158 155 153 154 150 151 150 148 144 141 142 138 140 139 147 150 150 153 159 231 155 185 227 142 231 131 144 140 117 99 92 40 87 134 175 143 150 160 228 293 251 244 314 295 295 300 288 281 300 293 189 168 243 139 149 184 184 198 98 127 150 25 229 293 190 230 211 215 160 156 144 156 171 184 172 182 195 181 172 171 175 182
157 157 155 155 157 158 158 156 152 155 149 144 141 144 145 140 139 138 139 140 143 148 150 154 177 197 209 213 115 203 102 119 127 125 120 129 101 48 91 64 88 77 87 138 298 279 312 237 246 285 303 275 279 21 296 1 293 199 220 184 175 141 212 164 163 174 137 266 90 330 185 270 228 167 130 149 149 152 166 187 170 178 192 186 172 169 177 189
156 155 153 154 156 155 155 152 155 147 142 141 135 137 140 140 134 135 132 132 143 142 142 157 226 155 164 172 81 6 355 122 151 164 144 145 117 103 82 102 89 97 91 115 259 320 286 280 193 252 269 238 243 271 240 210 228 216 171 228 205 169 80 161 84 182 148 256 227 145 304 242 62 126 140 145 157 157 177 186 178 184 183 186 175 176 182 186
154 152 151 152 154 154 151 150 144 138 140 136 133 131 129 131 128 129 134 134 140 132 137 157 204 249 208 198 152 119 158 165 191 153 186 145 152 135 139 103 91 74 80 344 281 269 270 254 223 208 257 353 239 241 247 161 217 236 190 165 204 188 158 170 275 196 344 135 249 206 209 225 103 140 117 165 157 179 193 218 201 182 179 181 182 188 189 181
151 149 150 150 150 150 149 144 139 139 137 132 125 123 120 122 124 126 130 129 129 130 158 161 177 225 169 3 114 185 177 103 77 122 139 353 145 128 117 115 106 108 138 154 217 195 219 215 108 305 229 244 174 220 226 223 202 220 193 221 188 199 138 197 10 307 248 170 188 243 230 234 151 158 165 162 192 173 207 225 235 195 176 177 181 187 194 196
149 149 149 149 148 149 147 141 140 134 130 128 124 123 120 122 119 123 126 129 129 152 210 141 195 121 255 141 190 193 124 122 175 130 109 313 142 137 132 137 108 130 139 149 178 186 178 214 161 219 191 225 196 212 209 206 185 175 175 227 207 198 166 156 162 201 167 246 189 194 237 266 189 166 173 190 184 180 200 211 224 221 187 183 181 186 195 197
148 148 147 149 148 146 144 137 134 130 128 124 121 115 115 111 118 120 140 146 143 143 185 172 184 185 219 167 156 115 121 127 112 129 141 144 151 101 80 90 132 131 156 177 196 192 170 248 132 221 221 203 212 211 214 232 179 191 176 202 168 182 219 173 213 189 168 170 209 176 204 229 248 209 179 168 190 184 206 207 209 214 208 192 185 192 194 201
148 148 150 149 146 144 140 136 134 134 132 128 128 119 123 142 150 154 167 186 210 162 10 164 188 30 72 138 129 63 109 143 119 180 132 123 121 124 126 137 144 165 151 194 160 209 148 195 193 207 216 211 223 222 218 237 267 208 176 200 201 186 189 58 95 169 352 144 221 216 220 228 233 226 189 184 180 198 197 209 212 219 222 213 198 189 199 198
150 151 151 148 145 142 140 136 136 138 139 135 134 147 164 172 153 170 174 191 234 244 114 154 183 54 96 117 134 139 137 180 133 147 158 175 120 140 162 147 156 178 171 165 160 161 170 206 217 208 223 223 217 230 228 274 276 279 179 186 219 168 192 52 167 211 253 136 227 225 245 246 244 245 257 168 172 195 199 205 212 207 207 213 209 210 200 204
152 153 149 148 145 144 140 137 139 142 142 142 154 175 159 176 32 95 138 137 241 236 189 156 181 78 119 118 152 12 117 121 119 127 344 179 157 169 177 170 163 178 170 175 140 158 196 214 215 208 224 280 224 218 242 242 296 292 177 188 202 205 105 87 61 133 207 95 276 187 214 242 244 244 251 245 185 203 199 198 205 199 207 207 205 207 204 181
151 152 149 148 145 143 141 140 141 146 149 155 181 204 166 199 109 130 143 113 118 187 142 163 176 128 96 96 183 90 152 159 152 162 173 191 154 235 160 176 171 173 165 208 175 162 205 228 227 215 214 242 319 205 148 173 306 319 308 131 202 165 137 270 261 145 215 185 236 41 295 274 269 237 229 224 225 212 200 203 206 198 203 204 203 198 192 196
151 152 151 148 145 142 139 142 141 151 170 166 195 203 102 301 150 155 130 140 133 117 141 173 180 120 154 136 174 132 162 153 130 170 169 164 164 162 177 172 171 183 181 205 190 189 210 177 225 315 206 220 219 250 181 179 233 257 266 223 197 158 221 121 178 145 98 6 104 319 316 282 219 239 238 233 216 211 216 204 203 209 206 188 120 104 185 188
151 152 150 146 145 142 142 141 151 169 158 182 221 225 72 347 228 184 118 95 105 77 345 144 294 195 143 23 60 159 129 89 62 151 169 177 159 131 192 192 169 193 188 193 193 197 202 219 296 190 221 201 205 207 210 164 239 237 237 205 311 160 115 94 119 117 119 280 223 131 340 285 217 212 219 217 197 212 197 178 200 200 202 207 217 212 226 225
151 151 150 147 147 145 142 147 171 157 166 194 203 224 251 213 334 34 150 98 150 149 126 187 158 193 127 135 123 170 122 169 45 116 158 189 18 177 124 213 151 182 186 176 201 182 203 80 145 193 176 199 193 203 210 170 211 219 246 182 269 107 115 134 151 126 145 172 264 136 169 269 305 229 224 203 185 206 185 195 213 206 204 201 215 218 209 206
151 152 150 150 150 145 153 172 153 152 167 201 219 223 222 267 33 11 165 99 184 166 156 44 185 178 15 158 156 144 161 194 145 44 148 56 177 12 178 162 103 353 130 137 86 226 124 109 343 281 170 165 183 214 207 182 183 244 258 334 118 115 124 165 158 179 158 62 37 353 149 208 293 295 265 160 171 197 201 221 227 219 211 203 204 202 203 205
153 154 151 153 154 158 64 132 155 172 178 173 174 198 81 131 41 27 349 121 233 139 174 188 214 52 191 155 185 184 352 121 127 219 167 137 91 130 265 179 170 170 217 139 195 47 137 147 172 158 155 146 203 205 222 177 196 213 270 331 159 139 154 160 149 194 187 128 282 224 268 327 252 254 286 106 143 234 227 219 217 211 205 181 170 171 165 158
152 151 153 154 154 164 115 155 164 161 175 106 155 165 128 81 21 196 184 174 117 113 89 123 271 144 117 154 181 187 125 168 175 121 111 117 315 133 209 190 165 129 45 134 190 157 2 151 175 150 144 191 137 315 341 193 184 256 227 27 43 76 117 150 176 129 328 103 253 207 199 185 282 237 205 254 202 220 225 222 210 192 175 155 143 132 140 129
152 154 153 154 154 175 97 146 170 173 111 167 134 124 121 105 138 222 158 239 141 179 189 120 192 164 157 159 175 169 169 58 82 125 145 161 176 281 281 258 131 122 97 61 73 179 261 149 193 84 187 83 117 10 13 356 80 129 147 82 46 42 59 7 90 117 70 262 244 185 198 140 287 245 192 170 215 199 222 101 101 107 109 115 127 148 155 164
150 151 155 156 164 160 150 152 178 169 113 93 128 129 134 202 186 165 177 173 128 85 110 152 143 148 160 165 170 177 157 96 138 142 151 157 172 243 169 80 58 69 70 68 61 138 73 46 27 277 345 246 168 83 7 239 138 127 127 136 93 11 29 33 342 39 151 261 233 317 322 45 192 290 262 187 289 80 167 172 161 149 148 141 150 148 141 144
151 152 156 157 146 161 173 169 166 134 120 141 141 150 169 156 282 204 169 134 175 188 177 159 161 163 171 164 140 171 149 122 158 161 159 171 167 171 195 170 169 125 175 176 168 93 52 128 127 32 252 312 194 100 354 14 326 328 137 131 123 189 93 280 165 214 210 204 250 348 339 324 251 238 253 231 199 180 8 152 164 149 141 143 135 129 127 123
149 152 153 154 143 191 81 124 140 138 135 174 150 175 172 155 181 203 156 168 195 151 192 164 155 161 161 156 167 157 135 156 174 177 155 168 165 191 202 176 188 163 169 145 96 125 254 119 185 58 129 213 212 140 139 147 260 221 166 157 141 143 176 195 218 192 302 318 281 324 291 263 256 273 243 253 225 180 131 81 106 130 145 146 135 131 125 125
147 149 156 155 166 79 110 143 144 139 153 174 157 156 198 177 202 194 146 190 131 161 138 159 147 147 158 177 159 154 151 152 170 170 166 167 175 176 206 209 182 184 138 151 163 173 158 302 230 158 223 166 187 255 188 162 177 207 189 161 176 158 156 192 168 187 200 179 291 274 75 231 135 250 352 124 72 80 108 114 109 104 116 126 140 156 140 130
146 150 143 145 162 110 140 166 148 150 170 162 156 173 168 196 191 177 172 174 140 158 150 147 147 151 172 170 140 169 152 143 190 157 185 168 192 188 184 191 192 179 130 147 204 146 197 197 320 337 238 346 184 238 89 117 141 232 192 66 200 224 136 164 190 153 146 120 64 317 203 206 173 198 207 173 102 93 91 110 106 119 124 122 140 133 144 128
141 149 152 159 179 141 135 169 154 164 177 164 158 179 196 188 175 180 176 122 138 147 146 143 148 159 160 170 152 170 343 117 190 165 186 192 182 189 185 186 186 188 172 176 147 160 149 220 321 325 8 37 0 337 70 188 172 228 127 211 197 75 95 99 18 290 71 62 250 169 304 295 280 304 205 157 132 173 129 169 145 152 143 141 139 136 123 127
147 147 163 169 180 143 145 177 162 177 190 175 167 188 200 148 343 149 124 150 151 141 143 151 175 166 171 177 170 173 152 112 182 169 189 170 201 197 185 201 183 185 200 139 191 193 158 163 341 19 194 292 185 54 283 27 172 81 146 233 143 228 121 132 204 45 180 153 252 136 203 276 157 266 27 129 176 215 192 194 207 167 152 153 164 149 143 136
150 151 139 173 161 140 143 170 162 186 188 183 192 196 102 181 293 146 145 130 142 150 154 159 156 174 170 157 166 166 154 162 184 189 178 175 261 181 188 191 186 190 186 97 130 223 109 79 244 330 227 293 256 153 116 196 148 105 187 343 153 215 277 272 188 233 146 219 243 229 220 252 178 235 135 219 197 210 214 198 187 175 167 169 152 144 132 121
135 150 150 175 145 142 144 163 170 169 174 187 202 193 172 75 306 134 157 136 145 152 164 179 146 195 165 171 162 156 161 185 160 198 155 202 216 188 192 171 190 189 179 137 134 177 165 160 295 322 118 203 17 132 199 221 293 193 264 37 109 66 226 137 196 199 122 226 164 293 126 237 215 214 191 209 197 194 194 183 196 189 186 170 161 160 158 158
155 148 144 143 143 140 155 156 151 177 191 195 187 191 112 102 204 343 91 144 161 167 186 162 174 159 177 171 158 166 181 177 165 185 193 158 204 209 190 162 166 184 176 166 152 156 172 97 158 241 310 107 181 180 206 183 167 219 107 259 206 171 230 101 287 196 165 198 185 203 298 274 258 230 201 184 183 188 180 186 184 187 188 173 164 164 172 167
172 104 121 147 144 149 150 145 164 187 198 199 168 160 153 168 142 88 66 5 89 353 157 170 161 177 169 153 173 167 163 173 170 185 186 167 182 183 239 183 150 162 105 110 128 181 84 186 147 146 114 214 218 336 109 111 200 198 182 195 186 159 144 162 261 30 97 132 231 189 236 279 270 4 52 118 113 97 100 160 182 178 164 161 164 167 163 156
164 138 153 154 150 167 153 154 202 194 197 177 178 161 156 111 147 159 76 322 68 132 331 152 166 164 159 172 164 166 160 178 177 184 201 181 201 206 193 150 158 150 155 181 180 287 148 101 106 154 206 175 95 277 8 180 87 135 157 227 168 171 144 155 191 258 6 261 94 173 69 277 244 319 16 66 90 101 80 103 139 145 153 151 154 156 150 149
115 85 114 145 166 173 158 174 176 183 202 179 78 61 117 134 132 175 142 203 141 345 115 109 168 159 189 165 157 160 164 181 173 194 185 190 182 184 303 164 147 159 151 122 79 227 69 109 85 70 46 339 273 195 191 25 349 334 278 250 140 192 193 192 185 183 165 181 105 331 204 247 297 42 9 15 44 45 4 102 121 118 120 131 139 145 145 134
104 124 130 159 179 203 170 178 182 193 188 166 147 108 297 136 142 156 172 181 144 186 146 142 37 263 158 164 149 170 169 144 222 185 185 168 193 358 307 171 154 163 162 191 171 201 149 243 118 136 94 63 349 3 356 309 143 215 195 206 203 223 176 165 102 28 175 215 170 148 233 261 274 313 304 342 242 216 240 232 151 133 142 148 149 138 134 133
129 61 81 146 196 217 195 197 191 182 176 172 158 159 148 106 138 169 154 160 97 156 129 86 158 150 89 112 128 136 180 174 134 207 102 180 132 280 341 72 178 170 107 191 166 158 166 168 138 150 170 181 193 194 198 202 206 212 290 213 203 150 151 123 226 192 216 256 169 188 250 251 274 309 274 227 197 220 199 166 201 170 154 152 153 150 152 152
207 130 130 131 203 226 292 358 311 179 173 174 172 174 148 136 24 354 149 100 347 92 36 129 45 94 118 130 134 161 181 197 120 182 145 138 86 3 332 19 30 112 329 162 142 147 162 186 181 181 193 209 210 210 179 108 88 171 215 195 205 195 195 194 171 185 208 209 182 226 203 247 268 252 229 219 207 199 189 158 172 199 160 160 162 167 170 172
338 143 151 151 143 243 218 226 209 181 193 174 184 163 175 163 138 132 286 154 233 144 104 35 161 143 184 158 169 175 179 137 54 133 181 134 40 102 45 43 74 36 322 102 160 110 105 194 211 203 210 209 202 194 183 163 182 199 200 207 203 196 193 187 188 212 202 188 245 235 222 222 237 180 215 234 227 230 205 190 190 184 184 165 169 160 150 152
116 294 168 161 152 182 189 216 208 195 183 177 185 157 174 152 162 163 28 330 144 225 127 352 210 185 167 176 152 164 169 166 149 156 146 88 115 116 57 12 59 341 342 145 208 142 152 200 213 197 231 224 215 207 178 184 196 201 204 203 201 196 187 191 217 227 194 187 223 231 205 222 236 183 211 213 192 199 200 200 184 170 156 144 143 154 167 176
325 334 354 16 115 196 215 50 171 187 178 177 180 171 177 169 181 173 154 132 147 235 192 165 194 196 181 170 160 168 166 155 215 176 154 153 147 126 86 43 298 65 22 219 131 202 129 230 196 189 217 222 199 186 189 183 203 208 207 210 202 191 196 201 217 223 215 219 224 241 203 223 220 206 209 217 197 190 174 130 125 144 171 161 158 166 180 184
350 349 153 43 352 163 164 132 166 180 188 178 190 192 184 181 178 158 151 154 162 201 201 199 181 179 169 180 174 181 190 194 172 151 115 126 118 150 178 175 162 20 45 135 150 318 134 269 133 160 213 240 219 34 354 245 196 209 215 203 189 188 200 209 218 228 228 241 248 257 274 272 246 198 216 157 105 91 99 139 174 175 155 157 169 181 187 195
0 315 313 172 164 122 156 170 173 184 183 175 199 185 194 184 188 169 179 189 179 175 183 197 162 168 169 179 192 204 186 185 150 166 162 147 175 198 140 219 129 137 148 147 151 16 136 233 45 106 189 253 352 158 175 39 41 210 247 196 183 179 197 210 216 223 205 219 237 252 262 258 243 185 186 137 141 148 169 182 169 164 170 168 182 190 196 203
301 274 180 310 156 325 166 179 182 174 205 195 192 185 190 190 180 160 160 231 214 189 182 173 148 148 183 181 204 206 144 127 156 169 169 160 134 156 146 154 154 153 168 183 188 147 157 111 112 135 183 227 291 329 118 99 32 294 244 211 196 197 198 206 216 217 207 204 215 214 233 237 229 159 205 205 174 190 178 177 178 188 188 181 188 195 203 205